Year,Month,Day,Hour,Minute,Value (Times are PST for temperature in C)
2020,04,13,00,00,6.30
2020,04,13,00,01,6.30
2020,04,13,00,02,6.30
2020,04,13,00,03,6.30
2020,04,13,00,04,6.20
2020,04,13,00,05,6.20
2020,04,13,00,06,6.20
2020,04,13,00,07,6.10
2020,04,13,00,08,6.10
2020,04,13,00,09,6.00
2020,04,13,00,10,5.90
2020,04,13,00,11,5.90
2020,04,13,00,12,5.80
2020,04,13,00,13,5.80
2020,04,13,00,14,5.70
2020,04,13,00,15,5.70
2020,04,13,00,16,5.70
2020,04,13,00,17,5.70
2020,04,13,00,18,5.60
2020,04,13,00,19,5.60
2020,04,13,00,20,5.60
2020,04,13,00,21,5.60
2020,04,13,00,22,5.50
2020,04,13,00,23,5.50
2020,04,13,00,24,5.40
2020,04,13,00,25,5.30
2020,04,13,00,26,5.20
2020,04,13,00,27,5.20
2020,04,13,00,28,5.10
2020,04,13,00,29,5.00
2020,04,13,00,30,4.90
2020,04,13,00,31,4.90
2020,04,13,00,32,4.80
2020,04,13,00,33,4.70
2020,04,13,00,34,4.70
2020,04,13,00,35,4.60
2020,04,13,00,36,4.60
2020,04,13,00,37,4.50
2020,04,13,00,38,4.40
2020,04,13,00,39,4.30
2020,04,13,00,40,4.30
2020,04,13,00,41,4.20
2020,04,13,00,42,4.20
2020,04,13,00,43,4.20
2020,04,13,00,44,4.20
2020,04,13,00,45,4.20
2020,04,13,00,46,4.10
2020,04,13,00,47,4.10
2020,04,13,00,48,4.10
2020,04,13,00,49,4.10
2020,04,13,00,50,4.00
2020,04,13,00,51,4.00
2020,04,13,00,52,4.00
2020,04,13,00,53,3.90
2020,04,13,00,54,3.90
2020,04,13,00,55,3.90
2020,04,13,00,56,4.00
2020,04,13,00,57,4.00
2020,04,13,00,58,4.10
2020,04,13,00,59,4.10
2020,04,13,01,00,4.20
2020,04,13,01,01,4.20
2020,04,13,01,02,4.30
2020,04,13,01,03,4.30
2020,04,13,01,04,4.50
2020,04,13,01,05,4.50
2020,04,13,01,06,4.60
2020,04,13,01,07,4.70
2020,04,13,01,08,4.80
2020,04,13,01,09,4.90
2020,04,13,01,10,5.00
2020,04,13,01,11,5.20
2020,04,13,01,12,5.40
2020,04,13,01,13,5.60
2020,04,13,01,14,5.70
2020,04,13,01,15,5.70
2020,04,13,01,16,5.80
2020,04,13,01,17,5.90
2020,04,13,01,18,5.90
2020,04,13,01,19,5.90
2020,04,13,01,20,6.00
2020,04,13,01,21,6.10
2020,04,13,01,22,6.10
2020,04,13,01,23,6.10
2020,04,13,01,24,6.10
2020,04,13,01,25,6.10
2020,04,13,01,26,6.10
2020,04,13,01,27,6.10
2020,04,13,01,28,6.00
2020,04,13,01,29,5.90
2020,04,13,01,30,5.80
2020,04,13,01,31,5.70
2020,04,13,01,32,5.60
2020,04,13,01,33,5.50
2020,04,13,01,34,5.40
2020,04,13,01,35,5.40
2020,04,13,01,36,5.30
2020,04,13,01,37,5.30
2020,04,13,01,38,5.30
2020,04,13,01,39,5.30
2020,04,13,01,40,5.50
2020,04,13,01,41,5.50
2020,04,13,01,42,5.60
2020,04,13,01,43,5.60
2020,04,13,01,44,5.50
2020,04,13,01,45,5.50
2020,04,13,01,46,5.60
2020,04,13,01,47,5.60
2020,04,13,01,48,5.70
2020,04,13,01,49,5.80
2020,04,13,01,50,5.80
2020,04,13,01,51,5.80
2020,04,13,01,52,5.80
2020,04,13,01,53,5.80
2020,04,13,01,54,5.80
2020,04,13,01,55,5.80
2020,04,13,01,56,5.80
2020,04,13,01,57,5.80
2020,04,13,01,58,5.70
2020,04,13,01,59,5.70
2020,04,13,02,00,5.70
2020,04,13,02,01,5.60
2020,04,13,02,02,5.50
2020,04,13,02,03,5.30
2020,04,13,02,04,5.20
2020,04,13,02,05,5.10
2020,04,13,02,06,5.00
2020,04,13,02,07,4.90
2020,04,13,02,08,4.80
2020,04,13,02,09,4.70
2020,04,13,02,10,4.50
2020,04,13,02,11,4.40
2020,04,13,02,12,4.40
2020,04,13,02,13,4.30
2020,04,13,02,14,4.20
2020,04,13,02,15,4.10
2020,04,13,02,16,4.10
2020,04,13,02,17,4.00
2020,04,13,02,18,4.00
2020,04,13,02,19,4.00
2020,04,13,02,20,3.90
2020,04,13,02,21,3.90
2020,04,13,02,22,4.00
2020,04,13,02,23,4.00
2020,04,13,02,24,4.00
2020,04,13,02,25,4.10
2020,04,13,02,26,4.10
2020,04,13,02,27,4.20
2020,04,13,02,28,4.30
2020,04,13,02,29,4.30
2020,04,13,02,30,4.30
2020,04,13,02,31,4.30
2020,04,13,02,32,4.30
2020,04,13,02,33,4.40
2020,04,13,02,34,4.40
2020,04,13,02,35,4.50
2020,04,13,02,36,4.60
2020,04,13,02,37,4.60
2020,04,13,02,38,4.70
2020,04,13,02,39,4.80
2020,04,13,02,40,4.80
2020,04,13,02,41,4.80
2020,04,13,02,42,4.80
2020,04,13,02,43,4.80
2020,04,13,02,44,4.80
2020,04,13,02,45,4.70
2020,04,13,02,46,4.60
2020,04,13,02,47,4.60
2020,04,13,02,48,4.60
2020,04,13,02,49,4.60
2020,04,13,02,50,4.60
2020,04,13,02,51,4.50
2020,04,13,02,52,4.40
2020,04,13,02,53,4.40
2020,04,13,02,54,4.30
2020,04,13,02,55,4.30
2020,04,13,02,56,4.20
2020,04,13,02,57,4.10
2020,04,13,02,58,4.00
2020,04,13,02,59,3.90
2020,04,13,03,00,3.80
2020,04,13,03,01,3.80
2020,04,13,03,02,3.80
2020,04,13,03,03,3.70
2020,04,13,03,04,3.60
2020,04,13,03,05,3.60
2020,04,13,03,06,3.60
2020,04,13,03,07,3.60
2020,04,13,03,08,3.60
2020,04,13,03,09,3.50
2020,04,13,03,10,3.60
2020,04,13,03,11,3.60
2020,04,13,03,12,3.60
2020,04,13,03,13,3.60
2020,04,13,03,14,3.70
2020,04,13,03,15,3.60
2020,04,13,03,16,3.60
2020,04,13,03,17,3.60
2020,04,13,03,18,3.60
2020,04,13,03,19,3.70
2020,04,13,03,20,3.70
2020,04,13,03,21,3.70
2020,04,13,03,22,3.70
2020,04,13,03,23,3.70
2020,04,13,03,24,3.70
2020,04,13,03,25,3.70
2020,04,13,03,26,3.70
2020,04,13,03,27,3.60
2020,04,13,03,28,3.60
2020,04,13,03,29,3.60
2020,04,13,03,30,3.70
2020,04,13,03,31,3.70
2020,04,13,03,32,3.60
2020,04,13,03,33,3.60
2020,04,13,03,34,3.60
2020,04,13,03,35,3.60
2020,04,13,03,36,3.60
2020,04,13,03,37,3.60
2020,04,13,03,38,3.60
2020,04,13,03,39,3.70
2020,04,13,03,40,3.80
2020,04,13,03,41,3.90
2020,04,13,03,42,4.00
2020,04,13,03,43,4.00
2020,04,13,03,44,4.10
2020,04,13,03,45,4.10
2020,04,13,03,46,4.10
2020,04,13,03,47,4.10
2020,04,13,03,48,4.10
2020,04,13,03,49,4.10
2020,04,13,03,50,4.10
2020,04,13,03,51,4.00
2020,04,13,03,52,4.00
2020,04,13,03,53,3.90
2020,04,13,03,54,3.90
2020,04,13,03,55,3.80
2020,04,13,03,56,3.80
2020,04,13,03,57,3.70
2020,04,13,03,58,3.70
2020,04,13,03,59,3.70
2020,04,13,04,00,3.70
2020,04,13,04,01,3.70
2020,04,13,04,02,3.60
2020,04,13,04,03,3.50
2020,04,13,04,04,3.50
2020,04,13,04,05,3.40
2020,04,13,04,06,3.30
2020,04,13,04,07,3.30
2020,04,13,04,08,3.30
2020,04,13,04,09,3.30
2020,04,13,04,10,3.30
2020,04,13,04,11,3.40
2020,04,13,04,12,3.40
2020,04,13,04,13,3.40
2020,04,13,04,14,3.50
2020,04,13,04,15,3.50
2020,04,13,04,16,3.50
2020,04,13,04,17,3.50
2020,04,13,04,18,3.50
2020,04,13,04,19,3.50
2020,04,13,04,20,3.50
2020,04,13,04,21,3.40
2020,04,13,04,22,3.40
2020,04,13,04,23,3.40
2020,04,13,04,24,3.40
2020,04,13,04,25,3.40
2020,04,13,04,26,3.40
2020,04,13,04,27,3.40
2020,04,13,04,28,3.50
2020,04,13,04,29,3.50
2020,04,13,04,30,3.60
2020,04,13,04,31,3.60
2020,04,13,04,32,3.70
2020,04,13,04,33,3.70
2020,04,13,04,34,3.70
2020,04,13,04,35,3.70
2020,04,13,04,36,3.70
2020,04,13,04,37,3.70
2020,04,13,04,38,3.70
2020,04,13,04,39,3.70
2020,04,13,04,40,3.70
2020,04,13,04,41,3.80
2020,04,13,04,42,3.80
2020,04,13,04,43,3.80
2020,04,13,04,44,3.80
2020,04,13,04,45,3.70
2020,04,13,04,46,3.70
2020,04,13,04,47,3.70
2020,04,13,04,48,3.60
2020,04,13,04,49,3.60
2020,04,13,04,50,3.60
2020,04,13,04,51,3.60
2020,04,13,04,52,3.50
2020,04,13,04,53,3.50
2020,04,13,04,54,3.40
2020,04,13,04,55,3.40
2020,04,13,04,56,3.30
2020,04,13,04,57,3.30
2020,04,13,04,58,3.30
2020,04,13,04,59,3.30
2020,04,13,05,00,3.20
2020,04,13,05,01,3.20
2020,04,13,05,02,3.10
2020,04,13,05,03,3.00
2020,04,13,05,04,3.00
2020,04,13,05,05,2.90
2020,04,13,05,06,2.90
2020,04,13,05,07,2.90
2020,04,13,05,08,2.80
2020,04,13,05,09,2.70
2020,04,13,05,10,2.70
2020,04,13,05,11,2.60
2020,04,13,05,12,2.60
2020,04,13,05,13,2.50
2020,04,13,05,14,2.50
2020,04,13,05,15,2.40
2020,04,13,05,16,2.40
2020,04,13,05,17,2.40
2020,04,13,05,18,2.30
2020,04,13,05,19,2.30
2020,04,13,05,20,2.30
2020,04,13,05,21,2.30
2020,04,13,05,22,2.40
2020,04,13,05,23,2.40
2020,04,13,05,24,2.40
2020,04,13,05,25,2.40
2020,04,13,05,26,2.40
2020,04,13,05,27,2.50
2020,04,13,05,28,2.50
2020,04,13,05,29,2.60
2020,04,13,05,30,2.70
2020,04,13,05,31,2.80
2020,04,13,05,32,2.80
2020,04,13,05,33,2.80
2020,04,13,05,34,2.80
2020,04,13,05,35,2.80
2020,04,13,05,36,2.80
2020,04,13,05,37,2.80
2020,04,13,05,38,2.90
2020,04,13,05,39,2.80
2020,04,13,05,40,2.80
2020,04,13,05,41,2.80
2020,04,13,05,42,2.70
2020,04,13,05,43,2.70
2020,04,13,05,44,2.70
2020,04,13,05,45,2.60
2020,04,13,05,46,2.60
2020,04,13,05,47,2.50
2020,04,13,05,48,2.50
2020,04,13,05,49,2.40
2020,04,13,05,50,2.40
2020,04,13,05,51,2.40
2020,04,13,05,52,2.30
2020,04,13,05,53,2.30
2020,04,13,05,54,2.20
2020,04,13,05,55,2.20
2020,04,13,05,56,2.20
2020,04,13,05,57,2.10
2020,04,13,05,58,2.10
2020,04,13,05,59,2.10
2020,04,13,06,00,2.10
2020,04,13,06,01,2.10
2020,04,13,06,02,2.00
2020,04,13,06,03,2.00
2020,04,13,06,04,1.90
2020,04,13,06,05,1.90
2020,04,13,06,06,1.90
2020,04,13,06,07,1.80
2020,04,13,06,08,1.80
2020,04,13,06,09,1.80
2020,04,13,06,10,1.80
2020,04,13,06,11,1.90
2020,04,13,06,12,1.90
2020,04,13,06,13,2.00
2020,04,13,06,14,2.00
2020,04,13,06,15,2.10
2020,04,13,06,16,2.10
2020,04,13,06,17,2.10
2020,04,13,06,18,2.10
2020,04,13,06,19,2.10
2020,04,13,06,20,2.10
2020,04,13,06,21,2.10
2020,04,13,06,22,2.00
2020,04,13,06,23,2.00
2020,04,13,06,24,2.00
2020,04,13,06,25,1.90
2020,04,13,06,26,1.90
2020,04,13,06,27,1.90
2020,04,13,06,28,1.90
2020,04,13,06,29,2.00
2020,04,13,06,30,2.00
2020,04,13,06,31,1.90
2020,04,13,06,32,1.90
2020,04,13,06,33,1.90
2020,04,13,06,34,1.90
2020,04,13,06,35,1.80
2020,04,13,06,36,1.80
2020,04,13,06,37,1.80
2020,04,13,06,38,1.80
2020,04,13,06,39,1.80
2020,04,13,06,40,1.80
2020,04,13,06,41,1.70
2020,04,13,06,42,1.70
2020,04,13,06,43,1.70
2020,04,13,06,44,1.70
2020,04,13,06,45,1.70
2020,04,13,06,46,1.70
2020,04,13,06,47,1.70
2020,04,13,06,48,1.70
2020,04,13,06,49,1.70
2020,04,13,06,50,1.80
2020,04,13,06,51,1.90
2020,04,13,06,52,2.00
2020,04,13,06,53,2.10
2020,04,13,06,54,2.10
2020,04,13,06,55,2.20
2020,04,13,06,56,2.20
2020,04,13,06,57,2.30
2020,04,13,06,58,2.30
2020,04,13,06,59,2.20
2020,04,13,07,00,2.20
2020,04,13,07,01,2.20
2020,04,13,07,02,2.20
2020,04,13,07,03,2.20
2020,04,13,07,04,2.20
2020,04,13,07,05,2.20
2020,04,13,07,06,2.30
2020,04,13,07,07,2.30
2020,04,13,07,08,2.40
2020,04,13,07,09,2.50
2020,04,13,07,10,2.60
2020,04,13,07,11,2.60
2020,04,13,07,12,2.60
2020,04,13,07,13,2.60
2020,04,13,07,14,2.50
2020,04,13,07,15,2.50
2020,04,13,07,16,2.50
2020,04,13,07,17,2.40
2020,04,13,07,18,2.40
2020,04,13,07,19,2.50
2020,04,13,07,20,2.60
2020,04,13,07,21,2.60
2020,04,13,07,22,2.70
2020,04,13,07,23,2.80
2020,04,13,07,24,2.80
2020,04,13,07,25,2.90
2020,04,13,07,26,2.90
2020,04,13,07,27,3.00
2020,04,13,07,28,3.10
2020,04,13,07,29,3.10
2020,04,13,07,30,3.20
2020,04,13,07,31,3.20
2020,04,13,07,32,3.20
2020,04,13,07,33,3.20
2020,04,13,07,34,3.10
2020,04,13,07,35,3.10
2020,04,13,07,36,3.10
2020,04,13,07,37,3.10
2020,04,13,07,38,3.10
2020,04,13,07,39,3.10
2020,04,13,07,40,3.10
2020,04,13,07,41,3.00
2020,04,13,07,42,3.00
2020,04,13,07,43,3.10
2020,04,13,07,44,3.10
2020,04,13,07,45,3.20
2020,04,13,07,46,3.20
2020,04,13,07,47,3.20
2020,04,13,07,48,3.30
2020,04,13,07,49,3.30
2020,04,13,07,50,3.30
2020,04,13,07,51,3.40
2020,04,13,07,52,3.50
2020,04,13,07,53,3.50
2020,04,13,07,54,3.60
2020,04,13,07,55,3.70
2020,04,13,07,56,3.70
2020,04,13,07,57,3.80
2020,04,13,07,58,3.90
2020,04,13,07,59,3.90
2020,04,13,08,00,4.00
2020,04,13,08,01,4.10
2020,04,13,08,02,4.10
2020,04,13,08,03,4.20
2020,04,13,08,04,4.30
2020,04,13,08,05,4.30
2020,04,13,08,06,4.40
2020,04,13,08,07,4.50
2020,04,13,08,08,4.60
2020,04,13,08,09,4.60
2020,04,13,08,10,4.60
2020,04,13,08,11,4.80
2020,04,13,08,12,4.90
2020,04,13,08,13,5.00
2020,04,13,08,14,5.20
2020,04,13,08,15,5.30
2020,04,13,08,16,5.40
2020,04,13,08,17,5.50
2020,04,13,08,18,5.70
2020,04,13,08,19,5.80
2020,04,13,08,20,5.90
2020,04,13,08,21,6.10
2020,04,13,08,22,6.20
2020,04,13,08,23,6.40
2020,04,13,08,24,6.60
2020,04,13,08,25,6.70
2020,04,13,08,26,6.90
2020,04,13,08,27,7.00
2020,04,13,08,28,7.20
2020,04,13,08,29,7.40
2020,04,13,08,30,7.60
2020,04,13,08,31,7.80
2020,04,13,08,32,8.00
2020,04,13,08,33,8.20
2020,04,13,08,34,8.30
2020,04,13,08,35,8.50
2020,04,13,08,36,8.60
2020,04,13,08,37,8.80
2020,04,13,08,38,8.90
2020,04,13,08,39,9.00
2020,04,13,08,40,9.10
2020,04,13,08,41,9.20
2020,04,13,08,42,9.30
2020,04,13,08,43,9.40
2020,04,13,08,44,9.50
2020,04,13,08,45,9.60
2020,04,13,08,46,9.60
2020,04,13,08,47,9.60
2020,04,13,08,48,9.70
2020,04,13,08,49,9.80
2020,04,13,08,50,9.80
2020,04,13,08,51,9.80
2020,04,13,08,52,9.90
2020,04,13,08,53,9.90
2020,04,13,08,54,9.90
2020,04,13,08,55,9.90
2020,04,13,08,56,9.90
2020,04,13,08,57,9.90
2020,04,13,08,58,9.80
2020,04,13,08,59,9.80
2020,04,13,09,00,9.80
2020,04,13,09,01,9.80
2020,04,13,09,02,9.80
2020,04,13,09,03,9.80
2020,04,13,09,04,9.80
2020,04,13,09,05,9.70
2020,04,13,09,06,9.70
2020,04,13,09,07,9.70
2020,04,13,09,08,9.60
2020,04,13,09,09,9.60
2020,04,13,09,10,9.60
2020,04,13,09,11,9.60
2020,04,13,09,12,9.60
2020,04,13,09,13,9.60
2020,04,13,09,14,9.60
2020,04,13,09,15,9.60
2020,04,13,09,16,9.60
2020,04,13,09,17,9.50
2020,04,13,09,18,9.50
2020,04,13,09,19,9.50
2020,04,13,09,20,9.50
2020,04,13,09,21,9.50
2020,04,13,09,22,9.50
2020,04,13,09,23,9.60
2020,04,13,09,24,9.60
2020,04,13,09,25,9.60
2020,04,13,09,26,9.50
2020,04,13,09,27,9.50
2020,04,13,09,28,9.40
2020,04,13,09,29,9.40
2020,04,13,09,30,9.40
2020,04,13,09,31,9.40
2020,04,13,09,32,9.40
2020,04,13,09,33,9.40
2020,04,13,09,34,9.40
2020,04,13,09,35,9.40
2020,04,13,09,36,9.40
2020,04,13,09,37,9.30
2020,04,13,09,38,9.40
2020,04,13,09,39,9.40
2020,04,13,09,40,9.40
2020,04,13,09,41,9.40
2020,04,13,09,42,9.50
2020,04,13,09,43,9.50
2020,04,13,09,44,9.50
2020,04,13,09,45,9.60
2020,04,13,09,46,9.50
2020,04,13,09,47,9.50
2020,04,13,09,48,9.50
2020,04,13,09,49,9.50
2020,04,13,09,50,9.50
2020,04,13,09,51,9.40
2020,04,13,09,52,9.40
2020,04,13,09,53,9.40
2020,04,13,09,54,9.40
2020,04,13,09,55,9.40
2020,04,13,09,56,9.40
2020,04,13,09,57,9.40
2020,04,13,09,58,9.40
2020,04,13,09,59,9.40
2020,04,13,10,00,9.40
2020,04,13,10,01,9.40
2020,04,13,10,02,9.40
2020,04,13,10,03,9.50
2020,04,13,10,04,9.50
2020,04,13,10,05,9.60
2020,04,13,10,06,9.70
2020,04,13,10,07,9.70
2020,04,13,10,08,9.80
2020,04,13,10,09,9.80
2020,04,13,10,10,9.80
2020,04,13,10,11,9.80
2020,04,13,10,12,9.70
2020,04,13,10,13,9.70
2020,04,13,10,14,9.70
2020,04,13,10,15,9.70
2020,04,13,10,16,9.70
2020,04,13,10,17,9.60
2020,04,13,10,18,9.60
2020,04,13,10,19,9.70
2020,04,13,10,20,9.70
2020,04,13,10,21,9.70
2020,04,13,10,22,9.70
2020,04,13,10,23,9.70
2020,04,13,10,24,9.60
2020,04,13,10,25,9.60
2020,04,13,10,26,9.50
2020,04,13,10,27,9.50
2020,04,13,10,28,9.60
2020,04,13,10,29,9.70
2020,04,13,10,30,9.70
2020,04,13,10,31,9.70
2020,04,13,10,32,9.70
2020,04,13,10,33,9.70
2020,04,13,10,34,9.80
2020,04,13,10,35,9.80
2020,04,13,10,36,9.80
2020,04,13,10,37,9.70
2020,04,13,10,38,9.70
2020,04,13,10,39,9.70
2020,04,13,10,40,9.70
2020,04,13,10,41,9.60
2020,04,13,10,42,9.60
2020,04,13,10,43,9.60
2020,04,13,10,44,9.70
2020,04,13,10,45,9.70
2020,04,13,10,46,9.70
2020,04,13,10,47,9.70
2020,04,13,10,48,9.80
2020,04,13,10,49,9.80
2020,04,13,10,50,9.80
2020,04,13,10,51,9.80
2020,04,13,10,52,9.80
2020,04,13,10,53,9.80
2020,04,13,10,54,9.90
2020,04,13,10,55,9.90
2020,04,13,10,56,9.90
2020,04,13,10,57,10.00
2020,04,13,10,58,10.00
2020,04,13,10,59,10.00
2020,04,13,11,00,10.00
2020,04,13,11,01,9.90
2020,04,13,11,02,9.90
2020,04,13,11,03,10.00
2020,04,13,11,04,10.00
2020,04,13,11,05,10.10
2020,04,13,11,06,10.10
2020,04,13,11,07,10.20
2020,04,13,11,08,10.30
2020,04,13,11,09,10.30
2020,04,13,11,10,10.40
2020,04,13,11,11,10.40
2020,04,13,11,12,10.40
2020,04,13,11,13,10.40
2020,04,13,11,14,10.40
2020,04,13,11,15,10.50
2020,04,13,11,16,10.60
2020,04,13,11,17,10.60
2020,04,13,11,18,10.50
2020,04,13,11,19,10.50
2020,04,13,11,20,10.40
2020,04,13,11,21,10.40
2020,04,13,11,22,10.50
2020,04,13,11,23,10.60
2020,04,13,11,24,10.60
2020,04,13,11,25,10.60
2020,04,13,11,26,10.50
2020,04,13,11,27,10.50
2020,04,13,11,28,10.50
2020,04,13,11,29,10.60
2020,04,13,11,30,10.70
2020,04,13,11,31,10.70
2020,04,13,11,32,10.70
2020,04,13,11,33,10.70
2020,04,13,11,34,10.70
2020,04,13,11,35,10.70
2020,04,13,11,36,10.80
2020,04,13,11,37,10.80
2020,04,13,11,38,10.80
2020,04,13,11,39,10.80
2020,04,13,11,40,10.70
2020,04,13,11,41,10.70
2020,04,13,11,42,10.70
2020,04,13,11,43,10.70
2020,04,13,11,44,10.80
2020,04,13,11,45,10.80
2020,04,13,11,46,10.80
2020,04,13,11,47,10.80
2020,04,13,11,48,10.80
2020,04,13,11,49,10.90
2020,04,13,11,50,10.90
2020,04,13,11,51,10.90
2020,04,13,11,52,10.90
2020,04,13,11,53,10.90
2020,04,13,11,54,10.90
2020,04,13,11,55,11.00
2020,04,13,11,56,11.00
2020,04,13,11,57,11.00
2020,04,13,11,58,11.00
2020,04,13,11,59,11.00
2020,04,13,12,00,11.00
2020,04,13,12,01,11.10
2020,04,13,12,02,11.10
2020,04,13,12,03,11.10
2020,04,13,12,04,11.10
2020,04,13,12,05,11.00
2020,04,13,12,06,11.00
2020,04,13,12,07,11.00
2020,04,13,12,08,11.00
2020,04,13,12,09,11.00
2020,04,13,12,10,11.00
2020,04,13,12,11,11.00
2020,04,13,12,12,11.00
2020,04,13,12,13,11.00
2020,04,13,12,14,10.90
2020,04,13,12,15,11.00
2020,04,13,12,16,11.00
2020,04,13,12,17,11.00
2020,04,13,12,18,11.00
2020,04,13,12,19,11.00
2020,04,13,12,20,10.90
2020,04,13,12,21,10.90
2020,04,13,12,22,10.90
2020,04,13,12,23,11.00
2020,04,13,12,24,11.00
2020,04,13,12,25,11.10
2020,04,13,12,26,11.10
2020,04,13,12,27,11.10
2020,04,13,12,28,11.20
2020,04,13,12,29,11.30
2020,04,13,12,30,11.30
2020,04,13,12,31,11.30
2020,04,13,12,32,11.30
2020,04,13,12,33,11.40
2020,04,13,12,34,11.40
2020,04,13,12,35,11.30
2020,04,13,12,36,11.40
2020,04,13,12,37,11.50
2020,04,13,12,38,11.50
2020,04,13,12,39,11.60
2020,04,13,12,40,11.50
2020,04,13,12,41,11.60
2020,04,13,12,42,11.60
2020,04,13,12,43,11.60
2020,04,13,12,44,11.70
2020,04,13,12,45,11.70
2020,04,13,12,46,11.70
2020,04,13,12,47,11.70
2020,04,13,12,48,11.70
2020,04,13,12,49,11.70
2020,04,13,12,50,11.70
2020,04,13,12,51,11.80
2020,04,13,12,52,11.80
2020,04,13,12,53,11.80
2020,04,13,12,54,11.70
2020,04,13,12,55,11.70
2020,04,13,12,56,11.70
2020,04,13,12,57,11.70
2020,04,13,12,58,11.70
2020,04,13,12,59,11.70
2020,04,13,13,00,11.70
2020,04,13,13,01,11.70
2020,04,13,13,02,11.70
2020,04,13,13,03,11.70
2020,04,13,13,04,11.80
2020,04,13,13,05,11.80
2020,04,13,13,06,11.80
2020,04,13,13,07,11.80
2020,04,13,13,08,11.80
2020,04,13,13,09,11.80
2020,04,13,13,10,11.90
2020,04,13,13,11,11.90
2020,04,13,13,12,12.00
2020,04,13,13,13,12.00
2020,04,13,13,14,11.90
2020,04,13,13,15,11.90
2020,04,13,13,16,11.90
2020,04,13,13,17,11.90
2020,04,13,13,18,11.90
2020,04,13,13,19,11.90
2020,04,13,13,20,11.90
2020,04,13,13,21,12.00
2020,04,13,13,22,12.10
2020,04,13,13,23,12.10
2020,04,13,13,24,12.10
2020,04,13,13,25,12.20
2020,04,13,13,26,12.20
2020,04,13,13,27,12.20
2020,04,13,13,28,12.20
2020,04,13,13,29,12.30
2020,04,13,13,30,12.40
2020,04,13,13,31,12.40
2020,04,13,13,32,12.50
2020,04,13,13,33,12.50
2020,04,13,13,34,12.50
2020,04,13,13,35,12.40
2020,04,13,13,36,12.40
2020,04,13,13,37,12.40
2020,04,13,13,38,12.40
2020,04,13,13,39,12.30
2020,04,13,13,40,12.30
2020,04,13,13,41,12.30
2020,04,13,13,42,12.30
2020,04,13,13,43,12.30
2020,04,13,13,44,12.40
2020,04,13,13,45,12.40
2020,04,13,13,46,12.40
2020,04,13,13,47,12.40
2020,04,13,13,48,12.50
2020,04,13,13,49,12.50
2020,04,13,13,50,12.60
2020,04,13,13,51,12.60
2020,04,13,13,52,12.70
2020,04,13,13,53,12.70
2020,04,13,13,54,12.70
2020,04,13,13,55,12.70
2020,04,13,13,56,12.70
2020,04,13,13,57,12.80
2020,04,13,13,58,12.80
2020,04,13,13,59,12.90
2020,04,13,14,00,12.90
2020,04,13,14,01,13.00
2020,04,13,14,02,13.10
2020,04,13,14,03,13.20
2020,04,13,14,04,13.20
2020,04,13,14,05,13.20
2020,04,13,14,06,13.20
2020,04,13,14,07,13.20
2020,04,13,14,08,13.20
2020,04,13,14,09,13.10
2020,04,13,14,10,13.00
2020,04,13,14,11,13.00
2020,04,13,14,12,13.10
2020,04,13,14,13,13.10
2020,04,13,14,14,13.10
2020,04,13,14,15,13.20
2020,04,13,14,16,13.30
2020,04,13,14,17,13.30
2020,04,13,14,18,13.20
2020,04,13,14,19,13.10
2020,04,13,14,20,13.10
2020,04,13,14,21,13.00
2020,04,13,14,22,13.00
2020,04,13,14,23,13.10
2020,04,13,14,24,13.10
2020,04,13,14,25,13.10
2020,04,13,14,26,13.10
2020,04,13,14,27,13.10
2020,04,13,14,28,13.00
2020,04,13,14,29,13.00
2020,04,13,14,30,13.00
2020,04,13,14,31,13.00
2020,04,13,14,32,13.00
2020,04,13,14,33,13.00
2020,04,13,14,34,12.90
2020,04,13,14,35,12.90
2020,04,13,14,36,12.90
2020,04,13,14,37,12.80
2020,04,13,14,38,12.80
2020,04,13,14,39,12.80
2020,04,13,14,40,12.80
2020,04,13,14,41,12.80
2020,04,13,14,42,12.80
2020,04,13,14,43,12.80
2020,04,13,14,44,12.90
2020,04,13,14,45,12.90
2020,04,13,14,46,12.90
2020,04,13,14,47,12.80
2020,04,13,14,48,12.80
2020,04,13,14,49,12.80
2020,04,13,14,50,12.70
2020,04,13,14,51,12.70
2020,04,13,14,52,12.70
2020,04,13,14,53,12.70
2020,04,13,14,54,12.60
2020,04,13,14,55,12.60
2020,04,13,14,56,12.60
2020,04,13,14,57,12.60
2020,04,13,14,58,12.70
2020,04,13,14,59,12.70
2020,04,13,15,00,12.70
2020,04,13,15,01,12.70
2020,04,13,15,02,12.60
2020,04,13,15,03,12.60
2020,04,13,15,04,12.60
2020,04,13,15,05,12.60
2020,04,13,15,06,12.70
2020,04,13,15,07,12.80
2020,04,13,15,08,12.80
2020,04,13,15,09,12.90
2020,04,13,15,10,12.90
2020,04,13,15,11,12.90
2020,04,13,15,12,12.90
2020,04,13,15,13,12.90
2020,04,13,15,14,12.90
2020,04,13,15,15,12.90
2020,04,13,15,16,12.90
2020,04,13,15,17,12.90
2020,04,13,15,18,13.00
2020,04,13,15,19,12.90
2020,04,13,15,20,12.90
2020,04,13,15,21,12.90
2020,04,13,15,22,12.90
2020,04,13,15,23,12.90
2020,04,13,15,24,12.90
2020,04,13,15,25,12.90
2020,04,13,15,26,13.00
2020,04,13,15,27,13.00
2020,04,13,15,28,13.00
2020,04,13,15,29,13.00
2020,04,13,15,30,13.00
2020,04,13,15,31,13.00
2020,04,13,15,32,13.00
2020,04,13,15,33,13.00
2020,04,13,15,34,12.90
2020,04,13,15,35,12.90
2020,04,13,15,36,12.90
2020,04,13,15,37,12.90
2020,04,13,15,38,12.90
2020,04,13,15,39,12.90
2020,04,13,15,40,13.00
2020,04,13,15,41,13.10
2020,04,13,15,42,13.10
2020,04,13,15,43,13.20
2020,04,13,15,44,13.20
2020,04,13,15,45,13.30
2020,04,13,15,46,13.30
2020,04,13,15,47,13.40
2020,04,13,15,48,13.40
2020,04,13,15,49,13.40
2020,04,13,15,50,13.40
2020,04,13,15,51,13.30
2020,04,13,15,52,13.30
2020,04,13,15,53,13.20
2020,04,13,15,54,13.20
2020,04,13,15,55,13.10
2020,04,13,15,56,13.10
2020,04,13,15,57,13.10
2020,04,13,15,58,13.20
2020,04,13,15,59,13.10
2020,04,13,16,00,13.10
2020,04,13,16,01,13.20
2020,04,13,16,02,13.20
2020,04,13,16,03,13.30
2020,04,13,16,04,13.30
2020,04,13,16,05,13.30
2020,04,13,16,06,13.30
2020,04,13,16,07,13.30
2020,04,13,16,08,13.30
2020,04,13,16,09,13.30
2020,04,13,16,10,13.20
2020,04,13,16,11,13.20
2020,04,13,16,12,13.20
2020,04,13,16,13,13.30
2020,04,13,16,14,13.20
2020,04,13,16,15,13.20
2020,04,13,16,16,13.10
2020,04,13,16,17,13.10
2020,04,13,16,18,13.10
2020,04,13,16,19,13.10
2020,04,13,16,20,13.10
2020,04,13,16,21,13.10
2020,04,13,16,22,13.10
2020,04,13,16,23,13.20
2020,04,13,16,24,13.20
2020,04,13,16,25,13.20
2020,04,13,16,26,13.20
2020,04,13,16,27,13.20
2020,04,13,16,28,13.30
2020,04,13,16,29,13.30
2020,04,13,16,30,13.30
2020,04,13,16,31,13.40
2020,04,13,16,32,13.40
2020,04,13,16,33,13.40
2020,04,13,16,34,13.40
2020,04,13,16,35,13.50
2020,04,13,16,36,13.50
2020,04,13,16,37,13.50
2020,04,13,16,38,13.50
2020,04,13,16,39,13.60
2020,04,13,16,40,13.60
2020,04,13,16,41,13.60
2020,04,13,16,42,13.70
2020,04,13,16,43,13.80
2020,04,13,16,44,13.80
2020,04,13,16,45,13.90
2020,04,13,16,46,13.90
2020,04,13,16,47,13.80
2020,04,13,16,48,13.80
2020,04,13,16,49,13.80
2020,04,13,16,50,13.80
2020,04,13,16,51,13.80
2020,04,13,16,52,13.80
2020,04,13,16,53,13.80
2020,04,13,16,54,13.80
2020,04,13,16,55,13.80
2020,04,13,16,56,13.80
2020,04,13,16,57,13.80
2020,04,13,16,58,13.70
2020,04,13,16,59,13.70
2020,04,13,17,00,13.60
2020,04,13,17,01,13.60
2020,04,13,17,02,13.50
2020,04,13,17,03,13.50
2020,04,13,17,04,13.50
2020,04,13,17,05,13.50
2020,04,13,17,06,13.50
2020,04,13,17,07,13.50
2020,04,13,17,08,13.60
2020,04,13,17,09,13.60
2020,04,13,17,10,13.60
2020,04,13,17,11,13.60
2020,04,13,17,12,13.60
2020,04,13,17,13,13.60
2020,04,13,17,14,13.60
2020,04,13,17,15,13.60
2020,04,13,17,16,13.60
2020,04,13,17,17,13.60
2020,04,13,17,18,13.60
2020,04,13,17,19,13.60
2020,04,13,17,20,13.70
2020,04,13,17,21,13.70
2020,04,13,17,22,13.70
2020,04,13,17,23,13.70
2020,04,13,17,24,13.70
2020,04,13,17,25,13.70
2020,04,13,17,26,13.70
2020,04,13,17,27,13.70
2020,04,13,17,28,13.70
2020,04,13,17,29,13.70
2020,04,13,17,30,13.70
2020,04,13,17,31,13.60
2020,04,13,17,32,13.60
2020,04,13,17,33,13.60
2020,04,13,17,34,13.60
2020,04,13,17,35,13.60
2020,04,13,17,36,13.60
2020,04,13,17,37,13.60
2020,04,13,17,38,13.60
2020,04,13,17,39,13.60
2020,04,13,17,40,13.60
2020,04,13,17,41,13.60
2020,04,13,17,42,13.50
2020,04,13,17,43,13.50
2020,04,13,17,44,13.40
2020,04,13,17,45,13.40
2020,04,13,17,46,13.40
2020,04,13,17,47,13.40
2020,04,13,17,48,13.40